Iron Mountain, MI

12:54 PM CDT on August 22, 2017 (GMT -0500)
Ford

Weather History for KIMT - October, 2012

Change the Weather History Date:

Tuesday, October 23, 2012

  Actual Average Record
Temperature  
Mean Temperature 52 °F -  
Max Temperature 55 °F 52 °F 80 °F (1963)
Min Temperature 48 °F 31 °F 11 °F (1969)
Degree Days  
Heating Degree Days 14    
Growing Degree Days 2 (Base 50)    
Moisture  
Dew Point 50 °F    
Average Humidity 91    
Maximum Humidity 100    
Minimum Humidity 80    
Precipitation  
Precipitation 0.03 in - - ()
Sea Level Pressure  
Sea Level Pressure 29.93 in    
Wind  
Wind Speed 7 mph (ESE)    
Max Wind Speed 10 mph    
Max Gust Speed 17 mph    
Visibility 5 miles    
Events Fog , Rain , Thunderstorm    
Averages and records for this station are not official NWS values.
T = Trace of Precipitation, MM = Missing Value Source: NWS Daily Summary

Daily Weather History Graph

Daily Weather History Graph

Search for Another Location

Airport or City:

Trip Planner

Search our weather history database for the weather conditions in past years. The results will help you decide how hot, cold, wet, or windy it might be!

Date:

Astronomy

Oct. 23, 2012 Rise Set
Actual Time 7:20 AM CDT 5:51 PM CDT
Civil Twilight 6:50 AM CDT 6:22 PM CDT
Nautical Twilight 6:15 AM CDT 6:57 PM CDT
Astronomical Twilight 5:40 AM CDT 7:31 PM CDT
Moon 2:51 PM CDT (10/23) 12:54 AM CDT (10/23)
Length of Visible Light 11h 32m
Length of Day
10h 31m
Waxing Gibbous, 67% of the Moon is Illuminated
Oct 23
Waxing Gibbous
Oct 29
Full
Nov 6
Last Quarter
Nov 13
New
Nov 20
First Quarter

Hourly Weather History & Observations

Time (CDT) Temp. Dew Point Humidity Pressure Visibility Wind Dir Wind Speed Gust Speed Precip Events Conditions
12:54 AM 48.9 °F 45.0 °F 86% 30.01 in 10.0 mi NE 6.9 mph - N/A   Overcast
1:54 AM 50.0 °F 45.0 °F 83% 30.01 in 10.0 mi NNW 5.8 mph - N/A   Overcast
2:54 AM 50.0 °F 46.0 °F 86% 29.99 in 10.0 mi NNW 5.8 mph - N/A   Overcast
3:16 AM 50.0 °F 46.4 °F 87% 29.97 in 10.0 mi North 3.5 mph - N/A   Overcast
3:54 AM 50.0 °F 46.0 °F 86% 29.96 in 10.0 mi NE 6.9 mph - N/A   Mostly Cloudy
4:09 AM 51.8 °F 46.4 °F 82% 29.96 in 10.0 mi Variable 5.8 mph - N/A   Mostly Cloudy
4:27 AM 51.8 °F 46.4 °F 82% 29.97 in 10.0 mi North 4.6 mph - N/A   Overcast
4:54 AM 51.1 °F 46.9 °F 86% 29.99 in 10.0 mi Calm Calm - N/A   Overcast
5:54 AM 52.0 °F 46.0 °F 80% 29.98 in 10.0 mi East 6.9 mph - N/A   Overcast
6:54 AM 51.1 °F 46.0 °F 83% 29.97 in 10.0 mi East 8.1 mph - 0.00 in   Scattered Clouds
7:40 AM 51.8 °F 46.4 °F 82% 29.95 in 10.0 mi East 6.9 mph - N/A   Mostly Cloudy
7:54 AM 52.0 °F 46.9 °F 83% 29.97 in 10.0 mi East 5.8 mph - N/A   Overcast
8:07 AM 51.8 °F 46.4 °F 82% 29.96 in 10.0 mi ESE 9.2 mph 17.3 mph N/A   Overcast
8:54 AM 52.0 °F 48.0 °F 86% 29.97 in 8.0 mi ESE 9.2 mph - N/A   Overcast
9:54 AM 52.0 °F 48.0 °F 86% 29.97 in 6.0 mi ESE 8.1 mph - N/A   Overcast
10:51 AM 53.6 °F 48.2 °F 82% 29.94 in 10.0 mi ESE 10.4 mph - N/A   Overcast
10:54 AM 54.0 °F 48.9 °F 83% 29.96 in 10.0 mi ESE 8.1 mph - N/A   Overcast
11:54 AM 54.0 °F 48.9 °F 83% 29.96 in 7.0 mi ESE 9.2 mph - N/A   Overcast
12:09 PM 53.6 °F 50.0 °F 88% 29.94 in 1.8 mi ESE 10.4 mph - N/A   Overcast
12:35 PM 53.6 °F 51.8 °F 94% 29.93 in 3.0 mi SE 8.1 mph - N/A   Overcast
12:54 PM 53.1 °F 51.1 °F 93% 29.95 in 3.0 mi Variable 6.9 mph - N/A   Overcast
1:01 PM 53.6 °F 51.8 °F 94% 29.92 in 2.5 mi SE 8.1 mph - N/A   Overcast
1:25 PM 53.6 °F 51.8 °F 94% 29.92 in 1.5 mi ESE 6.9 mph - N/A   Overcast
1:54 PM 52.0 °F 51.1 °F 97% 29.92 in 1.5 mi ESE 8.1 mph - 0.00 in Rain Light Rain
2:31 PM 51.8 °F 51.8 °F 100% 29.90 in 1.8 mi ESE 8.1 mph - 0.00 in Thunderstorm Overcast
2:46 PM 51.8 °F 51.8 °F 100% 29.89 in 1.8 mi ESE 10.4 mph - 0.00 in Rain Light Rain
2:54 PM 52.0 °F 51.1 °F 97% 29.91 in 2.0 mi ESE 8.1 mph - 0.01 in Rain Light Rain
3:06 PM 53.6 °F 51.8 °F 94% 29.89 in 3.0 mi ESE 5.8 mph - 0.00 in Rain Light Rain
3:43 PM 53.6 °F 51.8 °F 94% 29.88 in 2.0 mi SE 10.4 mph - 0.00 in   Overcast
3:54 PM 53.1 °F 52.0 °F 96% 29.90 in 1.5 mi ESE 9.2 mph - 0.00 in Rain Light Rain
4:31 PM 53.6 °F 51.8 °F 94% 29.89 in 1.0 mi ESE 5.8 mph - 0.00 in   Overcast
4:42 PM 53.6 °F 51.8 °F 94% 29.88 in 0.8 mi ESE 8.1 mph - 0.00 in   Overcast
4:54 PM 53.1 °F 52.0 °F 96% 29.90 in 0.5 mi SE 5.8 mph - 0.00 in Fog Fog
5:54 PM 54.0 °F 53.1 °F 97% 29.91 in 1.5 mi ESE 5.8 mph - 0.00 in   Overcast
6:54 PM 54.0 °F 53.1 °F 97% 29.91 in 1.8 mi ESE 5.8 mph - 0.00 in Rain Light Rain
7:27 PM 53.6 °F 53.6 °F 100% 29.90 in 2.0 mi SE 4.6 mph - 0.00 in   Overcast
7:40 PM 55.4 °F 53.6 °F 94% 29.90 in 1.8 mi ESE 6.9 mph - 0.00 in   Overcast
7:54 PM 55.0 °F 54.0 °F 96% 29.91 in 1.5 mi ESE 5.8 mph - 0.00 in   Overcast
8:42 PM 55.4 °F 53.6 °F 94% 29.89 in 2.0 mi SE 5.8 mph 17.3 mph N/A   Overcast
8:54 PM 55.0 °F 54.0 °F 96% 29.90 in 1.8 mi SE 8.1 mph - N/A   Overcast
9:17 PM 55.4 °F 53.6 °F 94% 29.90 in 2.0 mi SE 8.1 mph - N/A   Overcast
9:25 PM 55.4 °F 53.6 °F 94% 29.90 in 1.8 mi SE 9.2 mph - N/A   Overcast
9:54 PM 55.0 °F 54.0 °F 96% 29.91 in 2.5 mi SE 10.4 mph - 0.00 in Rain Light Rain
10:42 PM 55.4 °F 53.6 °F 94% 29.90 in 2.5 mi SE 8.1 mph - 0.02 in   Overcast
10:54 PM 55.0 °F 54.0 °F 96% 29.90 in 1.8 mi SE 10.4 mph - 0.02 in Rain Light Rain
11:35 PM 55.4 °F 53.6 °F 94% 29.89 in 1.5 mi SE 9.2 mph - 0.00 in   Overcast
11:54 PM 55.0 °F 54.0 °F 96% 29.89 in 1.5 mi SE 8.1 mph - 0.00 in   Overcast